Location: Gollag?dem
(17.0207°N, 80.7261°E)
Time: 16:18:42
(UTC+00:00)

CZ-4C R/B - Pass Details

Date: 03 August 2024
Orbit: 522 x 1469 km, 63.4° (Epoch: 11 September)

Event Time Altitude Azimuth Distance (km) Brightness Sun altitude
Rises 15:50:49 0° 328° (NNW) 4,244 6.7 -35.4°
Reaches altitude 10° 15:53:32 10° 325° (NW) 3,371 6.0 -36.0°
Maximum altitude 16:01:55 62° 248° (WSW) 1,606 3.5 -37.5°
Enters shadow 16:02:11 61° 240° (WSW) 1,611 3.5 -37.6°
